Date,TemperatureHighF,TemperatureAvgF,TemperatureLowF,DewpointHighF,DewpointAvgF,DewpointLowF,HumidityHigh,HumidityAvg,HumidityLow,PressureMaxIn,PressureMinIn,WindSpeedMaxMPH,WindSpeedAvgMPH,GustSpeedMaxMPH,PrecipitationSumIn
2013-1-1,53,49,41,51,46,38,92,91,86,30.22,30.00,16,2,16,1.20
2013-1-2,42,40,37,38,35,34,88,85,79,30.31,30.20,9,1,9,0.00
2013-1-3,50,40,30,37,33,28,92,78,49,30.46,30.30,13,1,13,0.00
2013-1-4,52,43,36,38,34,31,88,71,47,30.53,30.39,12,1,12,0.00
2013-1-5,45,43,38,42,40,34,92,88,80,30.42,30.30,6,0,6,0.36
2013-1-6,57,43,35,45,38,32,93,83,51,30.36,30.27,9,1,9,0.01
2013-1-7,54,42,32,40,36,29,91,80,56,30.41,30.20,11,2,11,0.00
2013-1-8,61,46,39,55,41,36,91,82,64,30.22,30.06,12,1,12,0.11
2013-1-9,60,59,57,58,57,55,93,93,91,30.21,30.11,13,3,13,1.92
2013-1-10,65,63,60,62,60,58,94,92,88,30.17,29.94,22,3,22,1.42
2013-1-11,72,62,48,63,54,45,94,79,53,30.07,29.94,12,2,12,0.01
2013-1-12,75,71,66,69,66,63,93,85,75,29.96,29.75,25,4,25,0.76
2013-1-13,73,51,40,67,47,34,91,87,80,30.23,29.74,21,5,21,0.72
2013-1-14,40,34,32,34,30,29,90,86,80,30.33,30.19,23,2,23,0.70
2013-1-15,32,32,31,30,29,28,96,90,90,30.20,30.08,0,0,0,0.34
2013-1-16,37,34,31,34,32,29,91,90,88,30.22,30.10,5,0,5,0.03
2013-1-17,57,42,32,38,34,29,91,75,45,30.50,30.20,17,2,17,0.00
2013-1-18,57,41,30,35,32,27,92,73,36,30.58,30.39,12,1,12,0.01
2013-1-19,60,43,30,39,34,27,92,73,41,30.39,30.23,13,1,13,0.00
2013-1-20,67,41,33,45,35,31,92,84,42,30.27,30.15,12,0,12,0.00
2013-1-21,51,43,37,44,35,29,92,75,50,30.31,30.16,20,2,20,0.00
2013-1-22,49,42,37,34,29,24,81,61,48,30.40,30.30,14,2,14,0.00
2013-1-23,73,54,36,50,42,31,86,68,36,30.35,30.21,17,2,17,0.00
2013-1-24,60,54,49,55,49,45,90,85,79,30.31,30.18,13,2,13,0.00
2013-1-25,70,56,46,60,51,42,90,83,63,30.23,30.09,24,4,24,0.00
2013-1-26,47,46,44,44,42,38,91,85,75,30.30,30.22,14,3,14,0.00
2013-1-27,76,59,42,59,52,40,93,79,55,30.24,30.10,15,2,15,0.00
2013-1-28,73,66,62,63,60,57,86,80,70,30.19,30.05,17,3,17,0.00
2013-1-29,77,69,58,68,64,54,90,82,69,30.06,29.58,39,6,39,1.54
2013-1-30,58,50,36,54,40,28,91,72,48,30.15,29.66,35,5,35,0.37
2013-1-31,63,46,31,34,29,24,89,57,23,30.28,30.14,17,2,20,0.01
2013-2-1,48,43,33,34,29,18,77,58,39,30.50,30.28,20,3,20,0.00
2013-2-2,71,50,33,49,40,27,89,70,44,30.32,30.16,25,2,25,0.00
2013-2-3,70,51,36,45,35,26,96,62,21,30.29,30.11,16,2,16,0.00
2013-2-4,61,53,44,48,41,34,77,64,44,30.11,29.92,14,2,14,0.00
2013-2-5,64,55,45,56,50,43,92,85,73,30.07,29.93,6,0,6,0.14
2013-2-6,60,52,43,55,49,41,93,90,81,30.16,29.98,10,1,10,0.04
2013-2-7,72,62,56,60,55,53,93,81,57,29.98,29.88,11,1,11,0.00
2013-2-8,61,54,42,55,47,37,90,76,54,30.25,29.95,19,4,19,0.00
2013-2-9,58,48,38,53,41,34,88,76,58,30.27,30.00,15,3,15,0.00
2013-2-10,64,61,58,61,58,53,93,90,84,30.01,29.80,27,3,27,1.92
2013-2-11,58,52,48,56,49,45,93,89,78,30.20,30.00,11,2,11,0.52
2013-2-12,50,47,45,48,45,43,92,92,91,30.14,29.82,20,3,20,1.18
2013-2-13,53,46,37,44,40,35,92,80,60,30.10,29.86,18,3,18,0.01
2013-2-14,64,47,32,43,37,30,93,73,35,30.16,30.06,11,1,11,0.00
2013-2-15,61,48,37,41,36,26,91,66,44,30.28,30.10,15,3,16,0.01
2013-2-16,53,41,31,29,22,13,76,50,22,30.35,30.24,24,4,24,0.00
2013-2-17,65,48,31,44,33,24,81,59,34,30.30,30.11,21,3,21,0.00
2013-2-18,67,57,49,56,48,40,90,74,56,30.14,29.85,26,6,26,0.79
2013-2-19,60,49,41,49,36,24,88,63,28,30.32,30.00,16,3,16,0.00
2013-2-20,54,46,43,34,30,26,67,55,37,30.30,30.05,18,5,18,0.00
2013-2-21,64,52,44,61,43,29,91,71,52,30.05,29.65,24,4,24,0.07
2013-2-22,55,47,40,47,42,37,92,84,66,30.08,29.91,14,2,14,0.03
2013-2-23,58,46,38,43,38,34,88,74,48,30.07,29.94,14,2,14,0.00
2013-2-24,65,52,35,44,39,32,96,64,41,30.05,29.77,15,3,15,0.00
2013-2-25,70,57,49,62,50,34,91,76,55,29.77,29.31,33,4,33,0.46
2013-2-26,56,47,38,37,34,32,87,63,46,29.92,29.52,32,6,32,0.00
2013-2-27,63,47,32,40,34,29,92,64,37,30.08,29.92,23,3,23,0.00
2013-2-28,58,46,36,34,29,24,83,54,27,30.19,30.07,18,3,19,0.00
2013-3-1,52,39,33,32,30,28,85,71,42,30.23,30.13,15,2,15,0.00
2013-3-2,48,38,29,32,26,23,83,62,39,30.30,30.20,17,3,17,0.00
2013-3-3,58,41,25,34,27,22,89,61,33,30.29,30.04,15,2,15,0.00
2013-3-4,75,59,42,57,47,32,81,64,46,30.05,29.75,37,7,37,0.00
2013-3-5,66,60,45,59,42,23,85,55,29,30.28,29.79,30,6,30,0.00
2013-3-6,58,46,36,32,27,23,70,48,28,30.39,30.27,15,3,15,0.00
2013-3-7,61,46,33,37,33,28,88,63,35,30.38,30.25,13,1,13,0.00
2013-3-8,72,54,36,43,38,32,88,58,29,30.31,30.11,12,1,12,0.00
2013-3-9,71,61,52,58,50,39,77,67,49,30.13,29.88,26,3,26,0.00
2013-3-10,66,60,49,61,55,41,92,86,75,29.97,29.80,26,4,26,0.41
2013-3-11,58,47,39,42,34,30,83,61,38,30.07,29.94,19,3,19,0.00
2013-3-12,65,49,34,37,33,26,89,60,25,30.25,30.07,15,1,15,0.00
2013-3-13,65,51,39,38,30,16,85,52,16,30.45,30.25,16,2,16,0.00
2013-3-14,72,53,34,40,34,29,84,53,25,30.45,30.23,11,1,11,0.00
2013-3-15,80,64,47,53,44,38,77,51,25,30.24,30.00,21,4,21,0.00
2013-3-16,80,63,58,57,54,49,87,74,36,30.02,29.84,24,5,24,0.00
2013-3-17,80,67,54,62,57,51,91,72,46,29.92,29.71,25,4,25,0.00
2013-3-18,81,68,54,65,60,48,88,76,57,30.02,29.74,23,5,23,0.00
2013-3-19,69,57,43,48,40,33,90,58,28,30.14,30.02,20,4,20,0.00
2013-3-20,69,56,44,37,31,23,68,41,19,30.25,30.07,17,3,17,0.00
2013-3-21,56,50,42,37,29,18,75,47,27,30.08,29.82,14,2,14,0.00
2013-3-22,55,51,46,50,45,34,90,81,48,29.88,29.77,15,4,16,0.21
2013-3-23,58,52,49,53,49,46,92,89,82,29.86,29.62,18,3,18,0.07
2013-3-24,55,49,37,50,39,29,92,71,42,30.10,29.64,32,6,32,0.00
2013-3-25,57,43,32,30,24,19,76,50,25,30.35,30.10,28,5,28,0.00
2013-3-26,55,41,29,30,25,22,81,54,30,30.45,30.34,16,2,16,0.00
2013-3-27,65,46,28,33,29,25,89,56,24,30.45,30.25,13,1,13,0.00
2013-3-28,74,54,35,43,36,30,85,56,26,30.36,30.20,16,1,16,0.00
2013-3-29,80,57,48,52,44,38,81,65,30,30.25,30.12,14,2,21,0.00
2013-3-30,68,62,57,63,57,48,92,84,73,30.14,29.96,22,2,22,0.45
2013-3-31,67,61,54,63,57,52,92,89,77,30.03,29.86,20,2,23,0.79
2013-4-1,76,56,50,59,50,48,93,85,39,30.13,29.96,13,0,13,0.01
2013-4-2,72,60,52,55,49,37,91,70,52,30.14,30.02,22,4,23,0.00
2013-4-3,52,46,44,42,41,38,91,83,60,30.13,30.03,21,5,21,0.56
2013-4-4,47,45,43,44,42,41,96,89,85,30.11,30.00,14,3,14,0.02
2013-4-5,71,54,42,46,42,39,90,68,36,30.22,30.10,14,2,14,0.00
2013-4-6,78,60,41,53,46,38,91,65,35,30.12,29.95,21,3,21,0.00
2013-4-7,79,66,54,57,54,50,89,68,45,30.06,29.89,20,3,20,0.00
2013-4-8,83,70,60,63,59,55,88,71,44,29.96,29.84,25,4,25,0.00
2013-4-9,87,75,66,70,66,59,90,73,52,29.93,29.79,27,5,27,0.00
2013-4-10,84,76,55,70,67,52,89,74,60,29.90,29.69,23,5,23,0.59
2013-4-11,56,49,44,52,46,41,92,88,70,29.88,29.73,19,3,19,2.88
2013-4-12,76,56,41,50,44,39,93,69,30,30.02,29.88,13,1,13,0.01
2013-4-13,75,56,46,55,48,43,92,78,43,30.06,30.00,9,0,9,0.00
2013-4-14,75,64,58,62,55,52,89,72,47,30.02,29.71,16,1,17,0.00
2013-4-15,87,72,58,69,64,56,92,76,53,29.91,29.78,14,3,14,0.00
2013-4-16,83,77,73,72,70,68,88,80,68,30.03,29.90,18,3,18,0.00
2013-4-17,89,78,70,73,69,67,92,77,53,30.06,29.84,25,3,25,0.00
2013-4-18,83,69,48,70,63,45,90,80,64,30.00,29.66,33,6,33,0.88
2013-4-19,61,50,42,45,37,31,89,64,37,30.21,29.99,24,4,24,0.00
2013-4-20,71,54,37,46,40,34,92,64,32,30.28,30.15,19,1,19,0.01
2013-4-21,73,59,44,48,44,39,90,62,31,30.26,30.14,15,2,15,0.00
2013-4-22,79,62,45,52,48,42,91,64,32,30.17,29.99,15,1,15,0.00
2013-4-23,83,71,54,66,62,50,90,74,54,30.05,29.90,20,3,20,0.00
2013-4-24,73,56,46,66,50,42,92,80,60,30.30,29.94,21,4,21,0.26
2013-4-25,71,56,45,47,44,39,90,66,34,30.39,30.26,16,2,16,0.01
2013-4-26,77,63,48,62,54,45,89,72,47,30.28,30.14,14,2,14,0.00
2013-4-27,81,72,64,67,64,61,91,78,62,30.15,29.94,27,3,27,0.01
2013-4-28,83,70,62,64,58,49,88,69,32,30.02,29.91,13,2,13,0.01
2013-4-29,86,70,57,68,59,54,92,72,34,29.99,29.86,9,1,9,0.00
2013-4-30,84,70,54,68,60,51,94,73,48,29.92,29.83,15,2,15,0.00
2013-5-1,74,66,64,69,63,61,93,88,80,29.97,29.87,16,2,16,1.58
2013-5-2,67,65,64,64,62,61,92,90,86,30.02,29.94,14,2,14,0.08
2013-5-3,64,50,42,62,47,39,92,88,59,30.08,29.99,22,5,23,0.15
2013-5-4,71,54,38,46,39,34,93,63,29,30.02,29.83,24,2,24,0.00
2013-5-5,65,52,41,46,42,38,88,69,44,30.05,29.94,17,3,17,0.00
2013-5-6,76,61,46,58,51,43,90,73,48,30.03,29.94,16,2,16,0.00
2013-5-7,81,66,52,60,56,50,96,73,43,30.07,29.99,12,1,12,0.00
2013-5-8,86,70,54,62,58,51,93,68,37,30.09,30.00,13,1,13,0.00
2013-5-9,82,71,61,67,63,57,90,77,55,30.10,29.96,19,2,19,0.17
2013-5-10,80,71,63,68,64,61,92,81,64,30.02,29.83,29,3,29,0.74
2013-5-11,80,68,59,66,62,56,93,82,56,30.09,29.94,13,2,13,0.18
2013-5-12,75,63,53,56,50,43,92,66,33,30.23,30.08,17,2,17,0.00
2013-5-13,80,64,48,54,50,45,92,64,33,30.30,30.16,14,2,14,0.01
2013-5-14,86,71,54,58,53,45,88,56,29,30.24,30.09,16,2,16,0.00
2013-5-15,83,71,60,64,58,53,88,66,43,30.16,29.98,19,3,20,0.02
2013-5-16,80,71,63,69,64,60,90,80,66,30.00,29.77,19,3,19,0.03
2013-5-17,85,76,67,75,68,62,89,78,64,29.97,29.87,18,2,18,0.01
2013-5-18,91,80,72,74,70,68,87,73,55,30.02,29.92,19,3,19,0.00
2013-5-19,90,80,71,72,69,66,89,71,48,29.98,29.86,22,4,22,0.00
2013-5-20,91,82,75,73,71,69,86,70,52,29.96,29.81,21,5,21,0.00
2013-5-21,90,79,64,74,70,60,90,74,56,29.94,29.74,31,5,37,0.75
2013-5-22,86,69,64,70,64,60,92,84,54,29.95,29.80,14,2,14,0.00
2013-5-23,89,76,66,74,69,64,93,81,53,30.08,29.95,11,1,11,0.01
2013-5-24,84,74,69,69,64,57,92,72,54,30.23,30.05,17,3,17,0.00
2013-5-25,87,74,63,68,61,56,80,64,46,30.26,30.11,13,2,13,0.00
2013-5-26,88,76,64,69,62,55,84,63,36,30.17,30.07,17,2,17,0.00
2013-5-27,90,79,71,71,67,62,83,68,45,30.10,29.95,21,3,21,0.00
2013-5-28,90,79,69,70,67,63,90,68,44,30.02,29.92,18,3,18,0.00
2013-5-29,90,78,65,72,68,62,91,72,52,30.00,29.88,20,3,20,0.00
2013-5-30,90,80,73,74,71,69,89,76,55,29.97,29.85,22,4,22,0.13
2013-5-31,91,81,74,76,73,70,88,76,61,29.98,29.84,18,4,18,0.00
2013-6-1,92,78,68,77,72,65,91,81,59,29.95,29.83,25,3,25,0.76
2013-6-2,82,73,68,72,68,64,92,84,69,29.98,29.89,20,2,20,0.34
2013-6-3,85,74,66,68,64,62,91,74,49,30.00,29.89,16,2,16,0.00
2013-6-4,91,77,63,73,68,60,92,74,48,29.98,29.86,13,1,13,0.00
2013-6-5,93,78,72,81,73,69,92,84,53,29.93,29.78,11,1,11,0.73
2013-6-6,81,74,69,71,68,66,92,82,68,29.91,29.77,24,2,24,0.27
2013-6-7,84,74,67,69,66,64,91,78,56,29.92,29.82,13,2,13,0.01
2013-6-8,87,75,63,70,65,60,93,73,49,29.97,29.89,11,1,11,0.00
2013-6-9,92,77,66,76,68,63,91,77,49,29.96,29.84,21,2,21,0.93
2013-6-10,92,79,66,74,69,63,93,75,50,29.99,29.94,13,2,13,0.01
2013-6-11,94,83,73,76,73,70,92,75,52,30.08,29.98,12,2,12,0.00
2013-6-12,94,83,76,76,74,72,91,74,50,30.09,29.98,16,2,16,0.00
2013-6-13,95,85,76,77,75,72,89,74,52,30.04,29.88,16,2,16,0.00
2013-6-14,91,82,70,76,70,65,88,69,45,30.00,29.91,16,2,16,0.00
2013-6-15,92,78,65,71,66,62,91,70,42,30.04,29.93,10,1,10,0.00
2013-6-16,91,78,71,78,71,67,90,80,63,30.03,29.95,19,1,19,0.01
2013-6-17,90,79,72,76,73,69,91,81,58,30.00,29.88,23,2,23,0.10
2013-6-18,80,74,70,76,71,67,93,89,79,29.98,29.87,25,2,25,1.28
2013-6-19,90,78,71,75,72,69,93,82,56,30.03,29.95,7,1,7,0.00
2013-6-20,93,81,71,76,72,68,93,77,49,30.11,30.00,5,1,7,0.00
2013-6-21,93,82,73,78,74,70,93,77,53,30.13,30.04,10,1,10,0.00
2013-6-22,92,80,71,79,72,68,92,78,52,30.10,29.98,17,1,17,0.06
2013-6-23,93,80,71,76,72,69,92,78,53,30.08,30.01,13,1,13,0.00
2013-6-24,94,86,75,76,72,70,86,65,49,30.11,30.01,9,2,15,0.00
2013-6-25,93,82,73,77,73,70,91,75,51,30.09,29.95,10,2,16,0.00
2013-6-26,94,80,74,76,73,71,91,81,54,30.05,29.91,19,2,19,0.00
2013-6-27,96,85,76,78,74,72,89,72,51,30.01,29.90,14,2,14,0.00
2013-6-28,96,86,77,78,74,67,88,69,51,29.94,29.73,33,3,33,0.23
2013-6-29,93,85,72,75,70,63,92,62,41,29.80,29.72,16,2,16,0.01
2013-6-30,88,77,68,72,65,61,90,69,46,29.86,29.74,13,2,16,0.00
2013-7-1,85,73,64,67,64,61,91,77,49,29.95,29.84,14,1,14,0.00
2013-7-2,88,75,64,67,64,60,92,71,42,30.03,29.94,12,1,12,0.00
2013-7-3,89,75,64,68,64,61,92,70,39,30.08,29.97,14,1,14,0.00
2013-7-4,90,77,63,67,63,58,89,66,36,30.03,29.94,10,1,10,0.00
2013-7-5,93,78,63,70,64,57,92,66,33,30.03,29.93,16,1,16,0.00
2013-7-6,91,77,68,74,69,65,92,78,50,30.03,29.93,11,1,14,0.00
2013-7-7,93,81,72,75,72,69,92,75,53,30.06,29.98,16,2,16,0.00
2013-7-8,94,82,73,75,72,68,92,73,45,30.15,30.05,11,1,11,0.00
2013-7-9,96,83,74,76,72,69,90,71,45,30.17,30.03,13,1,13,0.00
2013-7-10,97,85,76,76,74,72,88,70,47,30.09,29.93,13,2,13,0.00
2013-7-11,96,82,75,78,73,70,86,76,51,29.99,29.88,19,2,23,0.00
2013-7-12,95,81,70,75,68,60,92,68,36,29.98,29.89,16,2,16,0.00
2013-7-13,93,78,66,70,64,60,89,65,36,30.00,29.91,14,2,14,0.00
2013-7-14,91,75,64,72,67,61,91,77,49,30.01,29.92,21,1,21,0.17
2013-7-15,94,78,68,77,71,66,93,80,45,30.14,30.00,24,2,34,0.65
2013-7-16,92,80,71,78,72,69,93,78,57,30.20,30.11,17,2,17,0.06
2013-7-17,96,84,72,76,72,69,92,70,45,30.25,30.13,12,1,12,0.00
2013-7-18,95,80,71,76,72,69,92,78,47,30.16,30.01,16,1,23,0.53
2013-7-19,92,79,70,75,70,68,93,76,48,30.09,29.94,10,1,20,0.01
2013-7-20,95,82,70,74,70,67,91,70,46,30.00,29.88,13,1,13,0.00
2013-7-21,94,81,71,75,71,68,90,74,45,30.00,29.91,20,2,20,0.00
2013-7-22,95,84,75,76,74,71,89,74,51,30.01,29.92,13,3,16,0.00
2013-7-23,94,85,74,75,74,69,88,71,51,30.01,29.86,24,3,24,0.15
2013-7-24,91,79,72,78,72,69,92,80,55,29.95,29.86,17,2,17,0.11
2013-7-25,93,81,71,73,70,67,92,71,45,30.06,29.94,14,1,14,0.00
2013-7-26,90,79,68,75,69,64,91,74,51,30.07,29.90,16,1,16,0.42
2013-7-27,81,75,70,74,70,67,93,86,72,29.96,29.89,14,2,14,1.28
2013-7-28,90,78,67,74,69,64,93,77,53,30.01,29.93,11,1,11,0.01
2013-7-29,95,81,70,76,72,67,92,76,52,30.10,30.01,11,1,12,0.00
2013-7-30,96,82,72,74,70,63,92,70,37,30.15,30.02,15,1,15,0.00
2013-7-31,94,83,73,73,70,65,89,68,40,30.09,29.94,12,1,13,0.00
2013-8-1,96,85,76,79,74,71,88,72,51,30.01,29.92,12,1,12,0.00
2013-8-2,98,84,73,78,74,70,90,72,47,29.99,29.92,6,1,9,0.00
2013-8-3,96,85,76,78,74,72,89,73,50,30.04,29.95,11,1,11,0.00
2013-8-4,98,86,74,78,74,70,92,71,44,30.10,29.97,13,1,13,0.00
2013-8-5,98,86,76,78,74,72,89,69,44,30.03,29.91,13,1,14,0.00
2013-8-6,98,86,77,75,73,70,88,67,42,29.97,29.86,14,1,14,0.00
2013-8-7,100,87,77,75,73,65,88,65,37,29.95,29.84,11,1,11,0.00
2013-8-8,99,85,74,76,70,64,90,65,33,29.94,29.85,12,1,12,0.00
2013-8-9,99,84,72,77,72,68,90,69,44,30.01,29.89,20,1,20,0.00
2013-8-10,100,85,74,77,73,70,91,71,43,30.07,29.96,13,1,13,0.00
2013-8-11,98,83,74,76,73,71,91,73,44,30.10,30.00,12,1,14,0.01
2013-8-12,96,84,74,77,73,70,91,73,45,30.09,29.95,14,2,14,0.00
2013-8-13,91,80,72,78,73,69,91,80,61,30.01,29.93,19,2,19,0.02
2013-8-14,87,78,71,73,69,59,91,74,52,30.05,29.94,15,3,15,0.00
2013-8-15,88,74,63,69,62,58,86,66,43,30.06,29.95,12,2,13,0.00
2013-8-16,87,75,62,64,60,54,87,63,33,30.03,29.96,15,2,15,0.00
2013-8-17,88,75,65,71,66,61,90,75,49,30.03,29.96,17,2,17,0.00
2013-8-18,91,72,67,70,66,63,92,82,43,30.07,29.98,17,1,17,0.00
2013-8-19,93,79,66,71,66,60,91,68,37,30.08,29.96,13,1,13,0.00
2013-8-20,95,80,66,72,66,61,92,66,33,30.07,29.98,11,1,11,0.00
2013-8-21,96,80,70,74,70,67,91,74,45,30.12,30.02,13,1,13,0.00
2013-8-22,98,83,70,74,71,67,91,69,38,30.11,29.97,11,1,11,0.00
2013-8-23,98,83,73,81,72,70,90,72,43,30.03,29.92,21,1,21,0.04
2013-8-24,97,83,72,75,70,68,91,68,41,30.09,30.00,16,2,16,0.00
2013-8-25,95,82,70,72,70,67,91,69,45,30.19,30.09,17,2,17,0.00
2013-8-26,96,82,71,74,67,59,91,65,31,30.21,30.09,16,2,16,0.00
2013-8-27,96,80,67,73,66,62,91,66,36,30.15,30.01,10,1,10,0.00
2013-8-28,96,80,66,69,64,60,89,62,32,30.09,30.00,17,1,17,0.00
2013-8-29,97,81,66,69,66,63,89,63,34,30.09,29.97,11,1,11,0.00
2013-8-30,99,83,69,73,68,65,88,63,36,30.03,29.89,11,1,11,0.00
2013-8-31,98,85,71,73,69,66,87,61,39,29.96,29.83,14,2,16,0.00
2013-9-1,100,83,70,73,69,63,90,65,32,29.92,29.80,14,1,14,0.00
2013-9-2,97,82,75,76,72,69,90,74,45,29.96,29.86,17,2,17,0.02
2013-9-3,100,84,72,76,71,68,92,68,37,29.98,29.86,14,1,14,0.01
2013-9-4,100,84,73,71,65,62,78,55,32,30.08,29.96,13,2,13,0.00
2013-9-5,99,83,68,71,64,59,84,57,28,30.11,30.00,11,1,11,0.00
2013-9-6,99,83,68,74,67,63,87,61,33,30.10,29.95,11,0,11,0.00
2013-9-7,100,84,71,74,68,63,90,63,32,30.06,29.92,10,1,10,0.00
2013-9-8,99,83,69,72,67,64,89,62,34,30.00,29.89,12,1,12,0.00
2013-9-9,99,83,68,72,66,63,89,61,32,30.05,29.95,13,1,13,0.00
2013-9-10,96,82,70,72,68,65,87,65,39,30.13,30.00,14,1,14,0.00
2013-9-11,97,83,72,74,69,66,90,66,38,30.14,30.01,13,1,13,0.00
2013-9-12,99,83,68,72,66,62,89,62,32,30.07,29.90,11,1,11,0.00
2013-9-13,97,81,74,80,69,57,85,68,42,29.95,29.83,17,2,17,0.43
2013-9-14,89,75,65,59,54,49,73,51,30,30.02,29.93,15,3,15,0.00
2013-9-15,95,77,60,70,60,50,77,57,33,30.07,29.98,10,1,10,0.00
2013-9-16,98,83,69,72,65,59,82,58,34,30.11,29.98,12,1,12,0.00
2013-9-17,97,82,70,74,66,59,81,59,39,30.10,29.96,12,1,12,0.00
2013-9-18,98,83,70,73,68,61,85,63,31,30.06,29.94,13,1,13,0.00
2013-9-19,98,83,71,73,69,66,89,65,38,30.05,29.90,26,2,26,0.00
2013-9-20,86,77,71,75,72,68,90,84,67,29.97,29.78,26,2,26,1.66
2013-9-21,82,72,62,68,64,55,91,78,46,29.89,29.78,17,2,17,0.09
2013-9-22,81,68,56,57,54,51,89,66,38,29.92,29.82,12,2,14,0.00
2013-9-23,89,71,55,66,58,52,91,66,34,29.91,29.80,11,1,11,0.01
2013-9-24,90,78,66,74,67,62,91,73,42,29.86,29.78,17,2,17,0.14
2013-9-25,87,73,62,64,62,59,91,70,41,29.86,29.79,10,2,13,0.01
2013-9-26,91,74,60,66,62,58,92,70,39,29.95,29.84,9,1,9,0.00
2013-9-27,90,74,63,70,64,60,91,73,41,30.03,29.94,10,1,10,0.00
2013-9-28,91,78,68,70,66,62,89,68,43,30.08,29.95,10,2,11,0.00
2013-9-29,75,72,69,71,68,64,90,84,72,30.03,29.92,14,1,14,0.30
2013-9-30,87,76,70,74,70,66,89,81,59,29.94,29.86,13,1,14,0.02
2013-10-1,88,76,70,77,70,67,91,84,59,30.03,29.92,15,1,15,0.01
2013-10-2,92,77,68,74,68,65,92,76,46,30.06,29.93,14,1,14,0.01
2013-10-3,88,77,69,74,69,66,91,78,50,30.03,29.92,13,1,13,0.00
2013-10-4,88,78,71,75,71,68,91,80,61,30.02,29.92,15,1,15,0.00
2013-10-5,88,76,69,74,70,66,91,83,59,30.00,29.86,17,1,17,0.35
2013-10-6,75,65,55,72,55,44,91,72,38,30.02,29.89,23,3,23,1.22
2013-10-7,76,62,49,54,51,47,91,70,43,30.10,30.02,15,2,16,0.00
2013-10-8,77,62,50,55,52,47,91,73,43,30.12,30.02,13,1,13,0.01
2013-10-9,82,63,50,59,54,47,92,74,40,30.13,30.03,8,0,8,0.00
2013-10-10,82,66,56,66,60,52,92,81,49,30.14,29.99,10,1,10,0.02
2013-10-11,85,68,55,67,61,53,92,79,52,30.05,29.94,14,1,14,0.00
2013-10-12,85,70,64,73,66,61,92,87,65,30.10,29.97,18,2,18,0.61
2013-10-13,81,71,66,71,66,63,92,85,70,30.21,30.09,14,2,14,0.01
2013-10-14,82,71,63,69,65,60,92,82,61,30.16,30.01,8,1,8,0.00
2013-10-15,80,72,67,70,66,64,89,83,67,30.03,29.91,11,1,11,0.00
2013-10-16,67,64,60,64,61,57,92,91,89,30.00,29.92,16,1,16,0.35
2013-10-17,73,62,53,59,56,50,91,81,55,30.07,29.97,14,2,14,0.00
2013-10-18,73,61,51,58,54,49,92,79,49,30.08,29.95,10,1,10,0.00
2013-10-19,66,58,46,57,53,44,92,84,63,30.09,29.96,16,2,16,0.00
2013-10-20,72,53,40,50,44,38,92,75,36,30.14,30.00,9,0,9,0.00
2013-10-21,75,58,43,60,50,41,92,77,54,30.08,29.96,10,0,10,0.00
2013-10-22,73,61,52,58,53,48,91,77,47,30.08,29.99,14,2,14,0.00
2013-10-23,75,58,48,53,48,45,92,74,38,30.16,30.04,12,1,12,0.00
2013-10-24,79,61,46,58,50,43,90,69,43,30.31,30.08,14,2,14,0.00
2013-10-25,64,52,43,44,39,33,88,64,35,30.48,30.31,15,2,15,0.00
2013-10-26,75,55,41,56,45,37,89,73,40,30.33,30.13,12,1,12,0.00
2013-10-27,74,60,51,62,55,48,91,84,63,30.12,30.02,11,1,11,0.00
2013-10-28,79,64,55,65,59,53,92,84,53,30.18,30.06,9,1,9,0.00
2013-10-29,81,68,58,68,60,55,92,79,48,30.20,30.11,15,1,15,0.00
2013-10-30,73,68,62,68,64,58,91,87,80,30.17,29.95,11,1,11,0.25
2013-10-31,72,68,62,69,66,60,92,91,88,29.95,29.71,23,3,23,4.01
2013-11-1,75,60,48,60,53,46,93,80,41,29.96,29.85,12,1,12,0.01
2013-11-2,68,57,45,53,46,42,91,71,40,30.23,29.94,18,2,18,0.00
2013-11-3,66,50,40,47,42,38,92,76,42,30.29,30.14,15,1,15,0.00
2013-11-4,74,58,44,55,50,41,91,75,49,30.23,30.14,16,2,16,0.01
2013-11-5,78,66,57,63,58,52,83,75,61,30.19,30.08,15,2,15,0.00
2013-11-6,75,64,52,68,60,50,91,85,75,30.25,30.03,18,2,18,0.45
2013-11-7,62,50,41,50,41,38,90,74,43,30.43,30.25,21,3,21,0.00
2013-11-8,64,50,38,48,42,35,94,78,46,30.40,30.20,9,0,9,0.01
2013-11-9,57,51,46,51,47,43,95,87,70,30.29,30.20,4,0,4,0.15
2013-11-10,70,56,48,52,48,42,92,77,43,30.34,30.25,11,1,11,0.01
2013-11-11,74,56,45,55,49,42,92,78,42,30.30,30.17,10,0,10,0.00
2013-11-12,52,46,34,50,38,25,96,74,49,30.64,30.23,26,3,26,0.01
2013-11-13,52,37,28,31,26,23,89,68,34,30.67,30.44,16,2,16,0.00
2013-11-14,61,42,26,40,31,23,90,69,29,30.44,30.14,10,1,10,0.00
2013-11-15,67,49,42,58,45,38,91,87,71,30.14,29.97,5,0,7,0.11
2013-11-16,74,66,56,68,62,53,92,88,81,30.00,29.86,20,2,20,0.00
2013-11-17,82,72,65,72,68,63,91,86,73,29.95,29.80,20,3,20,0.35
2013-11-18,71,61,48,66,44,34,92,57,28,30.20,29.95,18,2,18,0.00
2013-11-19,62,52,42,43,35,27,83,56,28,30.26,30.13,20,3,20,0.00
2013-11-20,68,50,37,44,37,33,88,67,31,30.15,30.03,12,1,12,0.00
2013-11-21,70,59,44,64,55,40,88,86,79,30.17,30.08,12,1,12,0.00
2013-11-22,67,61,49,64,58,46,92,91,88,30.31,30.12,16,2,16,1.40
2013-11-23,49,44,38,46,40,31,91,86,76,30.50,30.30,18,4,18,0.44
2013-11-24,43,36,30,31,26,23,79,67,52,30.59,30.39,21,4,21,0.01
2013-11-25,38,35,34,35,30,26,91,83,71,30.41,30.06,12,2,12,1.57
2013-11-26,40,38,37,38,36,35,94,90,87,30.18,29.95,17,3,18,0.23
2013-11-27,44,34,25,34,27,22,90,75,46,30.43,30.18,16,2,16,0.00
2013-11-28,50,34,23,31,26,20,96,75,41,30.51,30.41,9,1,10,0.00
2013-11-29,57,38,25,35,29,22,90,73,36,30.56,30.42,8,1,8,0.01
2013-11-30,63,43,27,40,31,24,91,68,27,30.45,30.24,9,1,10,0.00
2013-12-1,63,56,46,50,42,34,80,61,43,30.24,29.94,9,1,11,0.00
2013-12-2,68,57,49,60,52,47,91,84,72,29.94,29.70,10,1,10,0.00
2013-12-3,78,64,52,64,58,50,92,81,53,29.73,29.60,23,2,23,0.01
2013-12-4,79,71,65,66,64,61,90,80,62,29.86,29.71,17,4,24,0.00
2013-12-5,74,57,40,71,54,37,91,90,80,30.08,29.85,21,3,21,0.69
2013-12-6,40,36,31,37,34,28,96,90,88,30.41,30.03,18,4,18,1.09
2013-12-7,34,31,30,28,26,25,89,83,74,30.50,30.33,19,4,19,0.00
2013-12-8,37,34,30,34,31,27,90,89,87,30.33,30.10,7,1,7,0.02
2013-12-9,37,35,33,35,33,31,96,90,89,30.28,30.15,13,2,13,0.25
2013-12-10,45,35,27,33,30,25,92,81,59,30.47,30.28,17,3,17,0.01
2013-12-11,54,38,26,36,30,24,91,76,47,30.54,30.38,12,1,12,0.00
2013-12-12,50,37,27,31,27,24,90,69,41,30.61,30.40,17,2,17,0.00
2013-12-13,54,41,28,51,34,25,91,76,50,30.40,29.83,17,1,17,0.30
2013-12-14,54,47,41,52,43,35,92,87,79,30.20,29.83,18,3,18,0.52
2013-12-15,46,37,30,35,31,27,90,79,61,30.34,30.20,16,2,16,0.00
2013-12-16,62,42,29,38,32,26,96,71,30,30.33,30.20,10,1,12,0.01
2013-12-17,69,47,31,41,36,28,95,71,34,30.31,30.21,15,1,15,0.00
2013-12-18,68,50,34,46,40,31,91,70,39,30.34,30.16,14,1,14,0.00
2013-12-19,72,58,41,55,48,37,88,73,55,30.16,29.94,12,2,15,0.00
2013-12-20,71,66,61,66,62,55,91,86,77,29.99,29.81,21,2,21,0.04
2013-12-21,74,67,55,68,62,52,90,86,77,29.81,29.51,36,5,36,1.27
2013-12-22,57,51,38,53,47,32,91,86,78,30.31,29.80,17,3,17,0.02
2013-12-23,45,37,29,32,29,26,89,74,54,30.55,30.31,17,3,17,0.00
2013-12-24,46,34,27,33,28,24,91,79,54,30.60,30.39,13,1,13,0.01
2013-12-25,54,38,26,34,29,23,96,74,40,30.44,30.32,11,1,11,0.00
2013-12-26,56,40,30,38,33,27,96,77,49,30.45,30.33,12,1,12,0.01
2013-12-27,56,41,30,37,32,27,91,71,35,30.48,30.34,8,1,10,0.00
2013-12-28,48,44,39,41,38,34,89,79,69,30.34,30.00,5,0,5,0.01
2013-12-29,63,47,33,42,36,30,92,70,32,30.14,30.01,10,1,10,0.00
2013-12-30,49,41,38,42,34,31,79,73,68,30.40,30.13,14,2,14,0.00
2013-12-31,44,38,32,33,31,29,88,77,60,30.47,30.30,6,1,8,0.00
2014-1-1,61,46,30,51,39,27,91,77,52,30.30,29.99,13,2,13,0.00
2014-1-2,57,45,32,52,32,22,88,61,36,30.43,29.97,25,5,25,0.00